Location: Santaluz Observatory
(32.9930°N, 117.1510°W)
Time: 21:00:00
(UTC-07:00)

HST - Visible Passes

Search period start: 30 September 2014 00:00
Search period end: 10 October 2014 00:00
Orbit: 547 x 551 km, 28.5° (Epoch: 30 September)

Date Brightness Start Highest point End Pass type
(mag) Time Alt. Az. Time Alt. Az. Time Alt. Az.
04 Oct 3.4 04:48:38 11° SSE 04:49:11 11° SSE 04:50:14 10° SE visible
05 Oct 3.2 04:42:10 14° SSE 04:42:10 14° SSE 04:44:12 10° SE visible
05 Oct 2.1 06:19:06 10° SW 06:22:53 33° SSE 06:26:40 10° ESE visible
06 Oct 3.1 04:35:39 17° SE 04:35:39 17° SE 04:37:34 10° ESE visible
06 Oct 1.9 06:11:49 10° WSW 06:15:42 38° S 06:19:35 10° ESE visible
07 Oct 3.2 04:29:04 18° SE 04:29:04 18° SE 04:30:44 10° ESE visible
07 Oct 1.7 06:04:37 10° WSW 06:08:31 41° S 06:12:28 10° ESE visible
08 Oct 3.3 04:22:26 17° ESE 04:22:26 17° ESE 04:23:46 10° ESE visible
08 Oct 1.5 05:57:59 14° WSW 06:01:20 44° S 06:05:19 10° ESE visible
09 Oct 3.5 04:15:46 15° ESE 04:15:46 15° ESE 04:16:44 10° ESE visible
09 Oct 1.5 05:51:19 18° WSW 05:54:09 45° S 05:58:08 10° ESE visible
